#timestamp,LO_Frequency,Hit,StdDev 
1502917215.8,286047001.1,N,1.0
1502917235.6,286046998.1,N,1.0
1502917255.5,286046998.3,N,1.0
1502917275.3,286047001.0,N,1.1
1502917295.1,286047001.0,N,1.2
1502917315.9,286047000.8,N,1.2
1502917335.7,286047000.4,N,1.2
1502917355.6,286047000.3,N,1.2
1502917375.4,286047000.0,N,1.2
1502917395.2,286047000.1,N,1.1
1502917415.1,286047002.4,N,1.3
1502917416.0,286047002.4,N,1.4
1502917435.8,286047002.2,N,1.4
1502917455.7,286047002.1,N,1.5
1502917475.5,286047001.9,N,1.5
1502917495.3,286047001.8,N,1.5
1502917515.2,286047002.5,N,1.6
1502917535.0,286047004.0,N,1.7
1502917535.9,286047004.0,N,1.8
1502917555.8,286047001.3,N,1.7
1502917575.6,286047004.4,N,1.8
1502917595.4,286047003.5,N,1.9
1502917615.3,286047004.1,N,1.9
1502917635.1,286047001.3,N,1.9
1502917655.9,286047003.6,N,1.9
1502917675.7,286047005.8,Y,0.0
1502917695.5,286047003.9,P,1.3
1502917715.4,286047004.3,P,1.4
1502917735.2,286047003.8,N,1.2
1502917755.1,286047002.9,N,1.1
1502917756.0,286047002.9,N,1.0
1502917775.8,286047005.8,Y,0.0
1502917795.7,286047001.6,P,0.8
1502917815.5,286047002.2,N,0.6
1502917835.3,286047002.5,P,0.6
1502917855.2,286047001.7,N,0.6
1502917875.0,286047002.2,Y,0.0
1502917875.9,286047002.2,P,0.0
1502917895.8,286047001.0,P,0.6
1502917915.6,286046999.9,N,1.0
1502917935.4,286047002.8,N,1.0
1502917955.3,286046999.9,N,1.1
1502917975.1,286047000.0,N,1.2
1502917995.8,286046999.7,N,1.2
1502918015.7,286047002.1,N,1.2
1502918035.5,286046999.7,N,1.2
1502918055.4,286047002.7,N,1.2
1502918075.2,286047002.4,N,1.2
1502918095.0,286047002.7,N,1.3
1502918095.9,286047002.7,N,1.3
1502918115.8,286047002.4,N,1.2
1502918135.6,286047002.2,N,1.2
1502918155.5,286047001.9,N,1.2
1502918175.3,286047002.8,N,1.2
1502918195.1,286047002.0,N,1.2
1502918215.9,286047001.5,N,1.1
1502918235.7,286047002.1,N,1.1
1502918255.5,286047004.4,Y,0.0
1502918275.4,286047000.0,P,0.8
1502918295.2,286047000.4,N,0.7
1502918315.1,286047002.2,P,0.9
1502918316.0,286047002.2,N,0.9
1502918335.8,286046999.7,N,1.0
1502918355.6,286047002.5,N,1.1
1502918375.5,286047002.0,N,1.0
1502918395.3,286047002.3,N,1.0
1502918415.2,286047002.2,N,1.0
1502918435.9,286047002.0,N,1.0
1502918455.7,286047002.1,N,0.9
1502918475.6,286047004.0,Y,0.0
1502918495.4,286047001.1,P,0.3
1502918515.3,286047001.2,P,0.2
1502918535.1,286046999.9,N,0.6
1502918536.0,286046999.9,N,0.7
1502918555.8,286047000.6,N,0.6
1502918575.7,286047000.4,N,0.6
1502918595.5,286047000.3,N,0.6
1502918615.4,286047000.5,N,0.6
1502918635.2,286046999.9,N,0.6
1502918655.0,286047000.5,N,0.5
1502918655.9,286047000.5,N,0.5
1502918675.8,286047000.7,N,0.5
1502918695.6,286046998.5,Y,0.0
1502918715.5,286046998.7,P,0.9
1502918735.3,286047001.0,N,1.0
1502918755.1,286046998.6,N,1.1
1502918775.9,286047001.2,N,1.1
1502918795.7,286047000.3,N,1.0
1502918815.5,286047000.5,N,1.0
1502918835.4,286046999.9,N,0.9
1502918855.2,286047001.0,N,0.9
1502918875.1,286047001.0,N,0.9
1502918876.0,286047001.0,N,0.9
1502918895.8,286046998.2,N,1.0
1502918915.6,286047001.2,N,1.0
1502918935.5,286047000.4,N,1.0
1502918955.3,286047000.1,N,1.0
1502918975.2,286047002.8,N,1.1
1502918995.9,286047000.2,N,1.1
1502919015.7,286047002.8,N,1.2
1502919035.6,286047002.8,N,1.3
1502919055.4,286047002.8,N,1.3
1502919075.2,286046999.8,N,1.3
1502919095.1,286047002.6,N,1.3
1502919096.0,286047002.6,N,1.4
1502919115.8,286047002.2,N,1.4
1502919135.7,286046999.9,N,1.3
1502919155.5,286047002.5,N,1.3
1502919175.3,286047002.3,N,1.3
1502919195.2,286047001.6,N,1.3
1502919215.0,286047001.5,N,1.3
1502919215.9,286047001.5,N,1.3
1502919235.8,286047004.0,Y,0.0
1502919255.6,286047001.8,P,0.4
1502919275.4,286047000.1,N,0.7
1502919295.3,286047000.2,N,0.7
1502919315.1,286047000.9,N,0.6
1502919335.8,286047000.0,N,0.6
1502919355.7,286047000.6,N,0.6
1502919375.5,286047000.9,N,0.6
1502919395.4,286047002.4,Y,0.0
1502919415.2,286047000.5,P,0.1
1502919435.0,286046999.8,N,0.4
1502919435.9,286046999.8,N,0.4
1502919455.8,286047002.5,Y,0.0
1502919475.6,286047000.2,P,0.0
1502919495.5,286047000.4,P,0.1
1502919515.3,286046999.7,P,0.3
1502919535.1,286047000.2,N,0.2
1502919555.9,286047000.4,N,0.2
1502919575.7,286047001.2,Y,0.0
1502919595.6,286046998.6,P,0.8
1502919645.4,286046999.9,E,nan
1502919655.3,286047000.2,N,0.0
1502919675.2,286047002.8,P,1.3
1502919695.0,286047000.3,N,1.2
1502919695.9,286047000.3,N,1.1
1502919715.8,286047002.7,N,1.2
1502919735.6,286046999.8,N,1.2
1502919755.4,286047001.0,N,1.1
1502919775.3,286046999.7,N,1.2
1502919795.1,286047002.7,N,1.2
1502919815.9,286047002.6,N,1.3
1502919835.7,286047002.7,N,1.3
1502919855.6,286046999.9,N,1.3
1502919875.4,286047002.5,N,1.3
1502919895.2,286047002.4,N,1.3
1502919915.1,286046999.7,N,1.3
1502919916.0,286046999.7,N,1.3
1502919935.8,286046999.8,N,1.3
1502919955.6,286047002.8,N,1.3
1502919975.5,286047002.3,N,1.3
1502919995.3,286047000.3,N,1.3
1502920015.2,286046999.9,N,1.3
1502920035.0,286047002.7,N,1.3
1502920035.9,286047002.7,N,1.3
1502920055.8,286047002.2,N,1.3
1502920075.6,286047000.2,N,1.3
1502920095.4,286047000.2,N,1.3
1502920115.3,286047002.4,N,1.3
1502920135.1,286047002.6,N,1.3
1502920155.9,286046999.8,N,1.3
1502920175.7,286047000.1,N,1.3
1502920195.5,286047000.1,N,1.3
1502920215.4,286047000.2,N,1.3
1502920235.2,286046999.9,N,1.3
1502920255.1,286047000.3,N,1.3
1502920256.0,286047000.3,N,1.3
1502920275.8,286046999.9,N,1.3
1502920295.6,286047002.4,N,1.3
1502920315.5,286047000.9,N,1.2
1502920335.3,286047000.1,N,1.2
1502920355.1,286047002.7,N,1.2
1502920375.9,286047002.6,N,1.2
1502920395.7,286047002.1,N,1.2
1502920415.6,286046999.7,N,1.2
1502920435.4,286046999.7,N,1.2
1502920455.2,286047000.4,N,1.2
1502920475.1,286046999.7,N,1.2
1502920476.0,286046999.7,N,1.2
1502920495.8,286047000.1,N,1.2
1502920515.7,286046999.9,N,1.1
1502920535.5,286047000.4,N,1.1
1502920555.3,286046999.8,N,1.1
1502920575.2,286046999.7,N,1.1
1502920595.0,286046999.7,N,1.1
1502920595.9,286046999.7,N,1.0
1502920615.8,286046999.9,N,1.0
1502920635.6,286047002.2,N,1.1
1502920655.4,286047000.0,N,1.0
1502920675.3,286047000.1,N,0.9
1502920695.1,286047002.5,N,1.0
1502920715.8,286047001.6,N,1.0
1502920735.7,286047000.2,N,1.0
1502920755.5,286046999.8,N,1.0
1502920775.4,286047000.1,N,1.0
1502920795.2,286046999.8,N,1.0
